Home > Weather > Prenzlau > Past weeks

Flag for Germany Weather for the Past 2 Weeks in Prenzlau, Brandenburg, Germany

Now
59 °F

Sunny.


Feels Like: 57 °F
Forecast: 40 / 62 °F
Wind: 9 mph from Southeast

Location: Szczecin Airport

Current Time: Apr 30, 2016 at 7:21:45 PM

Latest Report: Apr 30, 2016 at 7:00 PM


Visibility: 10 mi

Pressure: 30.09 "Hg

Humidity: 39%

Dew Point: 34 °F

Location of PrenzlauLocation

Historic Weather in Prenzlau — Graph

°F

Prenzlau Temperature Yesterday

Maximum temperature yesterday: 57 °F (at 2:30 PM)
Minimum temperature yesterday: 30 °F (at 3:00 AM)
Average temperature yesterday: 46 °F

High & Low Weather Summary for the Past Weeks

 TemperatureHumidityPressure
High63 °F (Apr 30, 3:00 PM)100% (Apr 16, 3:00 AM)30.30 "Hg (Apr 16, 3:00 AM)
Low28 °F (Apr 25, 12:30 AM)29% (Apr 29, 3:30 PM)29.47 "Hg (Apr 26, 6:30 PM)
Average45 °F71%29.87 "Hg
* Reported Apr 15 6:00 PM — Apr 30 6:00 PM, Prenzlau, Weather by CustomWeather, © 2016

Note: Actual official high and low records may vary slightly from our data, if they occured in-between our weather recording intervals... More about our weather records

Advertising

Prenzlau Weather History for the Previous 24 Hours

Scroll right to see more
 ConditionsComfort  
Time TempWeatherWind HumidityBarometerVisibility
6:00 PM
Sat, Apr 30
61 °FSunny.12 mph36%30.09 "Hg10 mi
5:30 PM61 °FPassing clouds.14 mph36%30.09 "HgN/A
5:00 PM61 °FPassing clouds.13 mph36%30.09 "HgN/A
4:30 PM63 °FPassing clouds.10 mph34%30.09 "HgN/A
4:00 PM63 °FPassing clouds.13 mph37%30.09 "HgN/A
3:30 PM63 °FPassing clouds.14 mph37%30.09 "HgN/A
3:00 PM63 °FPassing clouds.14 mph37%30.09 "HgN/A
2:30 PM61 °FPassing clouds.13 mph34%30.09 "HgN/A
2:00 PM61 °FSunny.13 mph36%30.09 "Hg10 mi
1:30 PM61 °FPassing clouds.16 mph36%30.09 "HgN/A
1:00 PM61 °FPassing clouds.16 mph39%30.09 "HgN/A
12:30 PM59 °FSunny.16 mph45%30.09 "Hg10 mi
12:00 PM59 °FPassing clouds.16 mph45%30.09 "HgN/A
11:00 AM57 °FPassing clouds.14 mph48%30.12 "HgN/A
10:30 AM54 °FSunny.15 mph51%30.12 "Hg10 mi
10:00 AM54 °FSunny.16 mph51%30.12 "Hg10 mi
9:30 AM52 °FSunny.16 mph54%30.12 "Hg10 mi
9:00 AM50 °FSunny.14 mph54%30.12 "Hg10 mi
8:30 AM48 °FSunny.13 mph58%30.12 "Hg10 mi
8:00 AM48 °FSunny.15 mph54%30.12 "Hg10 mi
7:30 AM46 °FSunny.13 mph57%30.12 "Hg10 mi
7:00 AM46 °FSunny.13 mph53%30.12 "Hg10 mi
6:30 AM45 °FSunny.12 mph57%30.09 "Hg10 mi
6:00 AM45 °FClear.12 mph57%30.09 "Hg10 mi
5:30 AM45 °FClear.12 mph53%30.12 "Hg10 mi
5:00 AM45 °FClear.12 mph53%30.12 "Hg10 mi
4:30 AM45 °FClear.13 mph53%30.12 "Hg10 mi
4:00 AM46 °FClear.14 mph50%30.12 "Hg10 mi
3:00 AM46 °FClear.13 mph50%30.12 "Hg10 mi
2:00 AM46 °FClear.12 mph50%30.12 "Hg10 mi
1:30 AM46 °FClear.12 mph50%30.12 "Hg10 mi
1:00 AM46 °FClear.12 mph50%30.12 "Hg10 mi
12:30 AM46 °FClear.12 mph50%30.12 "Hg10 mi
12:00 AM46 °FClear.10 mph50%30.12 "Hg10 mi
11:30 PM
Fri, Apr 29
46 °FClear.10 mph50%30.12 "Hg10 mi
11:00 PM48 °FClear.12 mph50%30.12 "Hg10 mi
10:30 PM48 °FClear.12 mph50%30.12 "Hg10 mi
10:00 PM50 °FClear.12 mph47%30.12 "Hg10 mi
9:30 PM48 °FClear.9 mph50%30.12 "Hg10 mi
9:00 PM48 °FSunny.9 mph50%30.09 "Hg10 mi
8:30 PM50 °FSunny.9 mph47%30.09 "Hg10 mi
8:00 PM52 °FSunny.8 mph44%30.09 "Hg10 mi
7:30 PM54 °FSunny.9 mph41%30.09 "Hg10 mi
7:00 PM55 °FSunny.9 mph36%30.09 "Hg10 mi
Weather by CustomWeather, © 2016

See weather overviewHow to use our weather pages